Location: London
(51.5074°N, 0.1278°W)
Time: 23:31:22
(UTC+01:00)

ISS - Pass Details

Date: 27 March 2018
Orbit: 402 x 408 km, 51.6° (Epoch: 16 July)

Event Time Altitude Azimuth Distance (km) Brightness Sun altitude
Rises 20:15:16 0° 222° (SW) 2,343 0.4 -8.5°
Reaches altitude 10° 20:17:31 10° 211° (SSW) 1,486 -0.8 -8.8°
Maximum altitude 20:20:26 29° 149° (SSE) 798 -2.7 -9.2°
Enters shadow 20:22:49 14° 93° (E) 1,296 -1.9 -9.6°
